Dauntless Aviation
Greetings, Guest! To participate, [sign up for a free account] or [log in]
Airports South America Uruguay

Hospital Policial

Montevideo, URUGUAY

Airport Info
Edit

Location

Latitude / Longitude: 34°52'4"S / 56°9'6"W
  34°52.068'S / 56°9.114'W
  -34.8678 / -56.1519
Satellite photo at:
Airport distance calculator
From:
Weather Reports

METAR

SUMU
8.1nm NE
SUMU 300130Z 14009KT 0350 FG VV002 12/12 Q1021

TAF

SUAA
7.8nm NW
TAF AMD SUAA 300145Z 3001/3024 14010KT 3000 BR BKN006 OVC030 TX18/3018Z TN12/3010Z TEMPO 3001/3007 0800 FG OVC002 BECMG 3012/3014 08015KT 9999 BKN030 BKN070 PROB40 TEMPO 3015/3022 7000 TSRA FEW040CB
SUMU
8.1nm NE
TAF AMD SUMU 300145Z 3001/3024 14010KT 3000 BR BKN006 OVC030 TX18/3018Z TN12/3010Z TEMPO 3001/3007 0800 FG OVC002 BECMG 3012/3014 08015KT 9999 BKN030 BKN070 PROB40 TEMPO 3015/3022 7000 TSRA FEW040CB
Safelog

 

Dauntless Aviation

© 2007-2015 Dauntless Aviation, all rights reserved
Information provided via PilotNav comes from a variety of official and unofficial data sources. As errors are possible, do not use PilotNav for primary flight planning purposes. Verify any information that you receive via PilotNav with current and canonical charts and other official documents. The material in this database is subject to database copyrights held by Dauntless Aviation and may not be copied without the express permission of Dauntless Aviation - licenses for use of part of all of this data are available for purchase; enquire via the Dauntless Aviation helpdesk. A number of mechanisms and markers exist in the database to protect against and identify infringement / copyright. Automated queries against this website are stictly prohibited, and all activity is logged and analyzed.